User: anonymous   Login
Location: Unspecified
(0.0000°N, 0.0000°E)
Time: 18:59:09
(UTC+00:00)
Language:

STARLINK-31126 - Orbit

View from above orbital plane
View from above orbital plane
View from above satellite
View from above satellite

Ground track
Ground track

The orbit is defined by the following mean orbital elements,

1 58675U          26145.34718597 +.00000000 +00000-0 +21972-4 0 00001
2 58675  43.0034  11.8986 0000705 278.2367  81.8405 15.27577602    05
Epoch (UTC): 25 May 2026 08:19:56
Eccentricity: 0.0000705
inclination: 43.0034°
perigee height: 483 km
apogee height: 484 km
right ascension of ascending node: 11.8986°
argument of perigee: 278.2367°
revolutions per day: 15.27577602
mean anomaly at epoch: 81.8405°

The dashed part of the orbit path shows where the satellite is in the earth's shadow,  

DLR